Volver al catálogo

STARLINK-3847

ActivoComunicacionesVLEO
NORAD 52333·PAYLOAD·🇺🇸 United States

Lanzado Apr 29, 2022 desde Cape Canaveral Space Force Station

Loading…

Próximos Pases (próximas 24 horas)

TLE

ActualizadoSource: CelesTrak SupGP

Época: Sep 14, 2026, 21:22 UTC

1 52333C 22045C   26257.89076389  .00047795  00000+0  15374-2 0  2571
2 52333  53.1594  66.0560 0001285  70.9958 103.1790 15.31668880    10

Sigue STARLINK-3847 en tiempo real con AllMySat

Download on the App Store